AirNav  
 
 661 users online  

AR88 Poe's Airport
Conway, Arkansas, USA

GOING TO CONWAY?


FAA INFORMATION EFFECTIVE 29 MARCH 2018

Location

FAA Identifier: AR88
Lat/Long: 35-03-17.3100N / 092-21-14.5540W
35-03.288500N / 092-21.242567W
35.0548083 / -92.3540428
(estimated)
Elevation: 295 ft. / 90 m (estimated)
Variation: 04E (1985)
From city: 4 miles SE of CONWAY, AR
Time zone: UTC -5 (UTC -6 during Standard Time)
Zip code: 72032

Airport Operations

Airport use: Private use. Permission required prior to landing
Activation date: 03/1991
Control tower: no
ARTCC: MEMPHIS CENTER
FSS: JONESBORO FLIGHT SERVICE STATION
Attendance: UNATNDD
Wind indicator: yes
Segmented circle: no

Airport Communications

WX AWOS-2 at CXW (10 nm W): 118.775 (501-358-6209)

Nearby radio navigation aids

VOR radial/distance  VOR name  Freq  Var
LITr334/24.2LITTLE ROCK VORTAC113.9005E

 
NDB name  Hdg/Dist  Freq  Var  ID
TONEYVILLE289/17.629001ETYV - -.-- ...-
RUSSELLVILLE105/38.337903ERUE .-. ..- .

Airport Services

Runway Information

Runway 11/29

Dimensions: 2700 x 50 ft. / 823 x 15 m
Surface: turf
RUNWAY 11  RUNWAY 29
Traffic pattern: leftleft
Obstructions: none40 ft. plines

Airport Ownership and Management from official FAA records

Ownership: Privately-owned
Owner: REX POE
234 ROOSTER RD
CONWAY, AR 72032
Phone 504-450-8428
Manager: REX POE
234 ROOSTER RD
CONWAY, AR 72032
Phone 501-450-8428

Airport Operational Statistics

Aircraft based on the field: 3
Single engine airplanes: 3
    

Instrument Procedures

There are no published instrument procedures at AR88.

Some nearby airports with instrument procedures:

KCXW - Cantrell Field Airport (10 nm W)
KLRF - Little Rock Air Force Base (13 nm SE)
KORK - North Little Rock Municipal Airport (14 nm S)
KBDQ - Morrilton Municipal Airport (18 nm W)
KLIT - Bill and Hillary Clinton National Airport/Adams Field (21 nm S)
 
Loc | Ops | Rwys | IFR | FBO | Links
Com | Nav | Svcs | Stats | Notes

AirNav Hotels Sweepstakes
 
Area around AR88 (Poe's Airport)
 
Road maps at: MapQuest Bing Google
 
Aerial photo
No photo
 
Sectional chart

 
Airport distance calculator
Flying to Poe's Airport? Find the distance to fly.

From to AR88

Sunrise and sunset
Times for 25-Apr-2018
 Local
(UTC-5)
 Zulu
(UTC)
Morning civil twilight05:5910:59
Sunrise06:2611:26
Sunset19:4900:49
Evening civil twilight20:1501:15

Current date and time
Zulu (UTC)  26-Apr-2018 04:32:49
Local (UTC-5)  25-Apr-2018 23:32:49
 
METAR
KCXW 
10nm W 
260415Z AUTO 01004KT 1 3/4SM BR OVC005 12/12 A2994 RMK A01
KLRF 
13nm SE 
260356Z AUTO 36003KT 5SM RA BR FEW030 OVC039 12/12 A2994 RMK AO2 RAE32DZB32E33RAB33 SLP140 P0007 T01210121
KLIT 
20nm S 
260409Z 35005KT 3SM -RA BR SCT006 OVC025 12/12 A2994 RMK AO2 P0001 T01220122
TAF
KLRF 
13nm SE 
260341Z 2603/2705 04006KT 9000 -RA FEW015 OVC025 QNH2992INS BECMG 2605/2606 02006KT 8000 -RA BR OVC015 QNH2988INS BECMG 2607/2608 36006KT 9999 NSW OVC015 QNH2986INS BECMG 2614/2615 35010G15KT 9999 BKN020 QNH2990INS BECMG 2623/2624 02009KT 9999 BKN035 QNH2993INS TX19/2621Z TN12/2612Z
NOTAMs
Click for the latest NOTAMs
NOTAMs are issued by the DoD/FAA and will open in a separate window not controlled by AirNav.

 

 
 

Would you like to see your business listed on this page?

 If your business provides an interesting product or service to pilots, flight crews, aircraft, or users of the Poe's Airport, you should consider listing it here.  To start the listing process, click on the button below
 
Add a business
 

Other Pages about Poe's Airport

Update a link
 
Copyright © AirNav, LLC. All rights reserved. Privacy Policy  Contact